Wolf Point, MT

12:26 AM MDT on September 24, 2017 (GMT -0600)
Clayton

Weather History for KOLF - October, 2012

Change the Weather History Date:

Thursday, October 4, 2012

  Actual Average Record
Temperature  
Mean Temperature 37 °F -  
Max Temperature 46 °F 65 °F 91 °F (2011)
Min Temperature 27 °F 34 °F 19 °F (2000)
Degree Days  
Heating Degree Days 28    
Cooling Degree Days 0    
Moisture  
Dew Point 29 °F    
Average Humidity 74    
Maximum Humidity 92    
Minimum Humidity 49    
Precipitation  
Precipitation 0.00 in 0.02 in 0.31 in (1998)
Month to date precipitation 0.00 0.10  
Year to date precipitation 9.14 10.78  
Sea Level Pressure  
Sea Level Pressure 30.48 in    
Wind  
Wind Speed 6 mph (North)    
Max Wind Speed 14 mph    
Max Gust Speed 16 mph    
Visibility 10 miles    
Events      
T = Trace of Precipitation, MM = Missing Value Source: NWS Daily Summary

Daily Weather History Graph

Daily Weather History Graph

Search for Another Location

Airport or City:

Trip Planner

Search our weather history database for the weather conditions in past years. The results will help you decide how hot, cold, wet, or windy it might be!

Date:

Astronomy

Oct. 04, 2012 Rise Set
Actual Time 7:06 AM MDT 6:34 PM MDT
Civil Twilight 6:35 AM MDT 7:05 PM MDT
Nautical Twilight 5:59 AM MDT 7:41 PM MDT
Astronomical Twilight 5:22 AM MDT 8:17 PM MDT
Moon 8:50 PM MDT (10/4) 11:46 AM MDT (10/4)
Length of Visible Light 12h 29m
Length of Day
11h 27m
Waning Gibbous, 81% of the Moon is Illuminated
Oct 4
Waning Gibbous
Oct 8
Last Quarter
Oct 15
New
Oct 21
First Quarter
Oct 29
Full

Hourly Weather History & Observations

Time (MDT) Temp. Windchill Dew Point Humidity Pressure Visibility Wind Dir Wind Speed Gust Speed Precip Events Conditions
12:53 AM 37.0 °F 29.8 °F 33.1 °F 86% 30.49 in 10.0 mi North 10.4 mph - N/A   Mostly Cloudy
1:53 AM 34.0 °F 27.2 °F 30.9 °F 89% 30.51 in 10.0 mi North 8.1 mph - N/A   Clear
2:53 AM 30.9 °F 26.2 °F 28.9 °F 92% 30.51 in 10.0 mi NW 4.6 mph - N/A   Partly Cloudy
3:53 AM 32.0 °F 26.4 °F 30.0 °F 92% 30.50 in 10.0 mi NW 5.8 mph - N/A   Overcast
4:53 AM 30.9 °F 26.2 °F 28.0 °F 89% 30.50 in 10.0 mi NNE 4.6 mph - N/A   Clear
5:53 AM 30.0 °F - 28.0 °F 92% 30.51 in 10.0 mi Calm Calm - N/A   Scattered Clouds
6:53 AM 30.9 °F - 28.9 °F 92% 30.51 in 10.0 mi Calm Calm - N/A   Overcast
7:53 AM 33.1 °F 30.0 °F 30.0 °F 89% 30.51 in 10.0 mi NW 3.5 mph - N/A   Overcast
8:20 AM 33.8 °F - 30.2 °F 87% 30.45 in 10.0 mi Calm Calm - N/A   Overcast
8:48 AM 35.6 °F 30.7 °F 30.2 °F 81% 30.45 in 10.0 mi NW 5.8 mph - N/A   Overcast
8:53 AM 35.1 °F 30.1 °F 30.9 °F 85% 30.51 in 10.0 mi WNW 5.8 mph - N/A   Overcast
9:53 AM 39.0 °F 34.8 °F 32.0 °F 76% 30.51 in 10.0 mi NNW 5.8 mph - N/A   Mostly Cloudy
10:32 AM 39.2 °F 34.2 °F 30.2 °F 70% 30.44 in 10.0 mi North 6.9 mph - N/A   Mostly Cloudy
10:41 AM 41.0 °F 35.2 °F 30.2 °F 65% 30.44 in 10.0 mi North 9.2 mph - N/A   Scattered Clouds
10:53 AM 41.0 °F 35.8 °F 30.0 °F 65% 30.50 in 10.0 mi North 8.1 mph - N/A   Scattered Clouds
11:53 AM 44.1 °F 38.6 °F 28.9 °F 55% 30.49 in 10.0 mi NNW 10.4 mph 16.1 mph N/A   Scattered Clouds
12:53 PM 44.1 °F 37.4 °F 28.0 °F 53% 30.47 in 10.0 mi NNE 13.8 mph - N/A   Overcast
1:53 PM 45.0 °F 39.7 °F 28.0 °F 52% 30.46 in 10.0 mi North 10.4 mph - N/A   Overcast
2:53 PM 45.0 °F 41.2 °F 27.0 °F 49% 30.45 in 10.0 mi NW 6.9 mph - N/A   Overcast
3:53 PM 44.6 °F 40.2 °F 26.6 °F 49% 30.39 in 10.0 mi NNE 8.1 mph - N/A   Overcast
4:53 PM 43.0 °F 38.8 °F 27.0 °F 53% 30.45 in 10.0 mi NNE 6.9 mph - N/A   Mostly Cloudy
5:53 PM 43.0 °F 38.2 °F 27.0 °F 53% 30.45 in 10.0 mi NE 8.1 mph - N/A   Overcast
6:53 PM 41.0 °F - 28.0 °F 60% 30.47 in 10.0 mi Calm Calm - N/A   Overcast
7:53 PM 37.9 °F 35.5 °F 30.0 °F 73% 30.47 in 10.0 mi NNE 3.5 mph - N/A   Overcast
8:53 PM 34.0 °F - 28.0 °F 79% 30.48 in 10.0 mi Calm Calm - N/A   Clear
9:53 PM 30.0 °F 26.5 °F 26.1 °F 85% 30.48 in 10.0 mi NE 3.5 mph - N/A   Clear
10:53 PM 30.9 °F - 25.0 °F 79% 30.48 in 10.0 mi Calm Calm - N/A   Scattered Clouds
11:53 PM 28.0 °F - 26.1 °F 92% 30.48 in 10.0 mi Calm Calm - N/A   Mostly Cloudy